Regional Weather Roundup
Issued by NWS Columbia, SC

Home | Current Version | Previous Version | Text Only | Print | Product List | Glossary On
Versions: 1 2 3 4 5 6 7 8 9 10 11 12 13 14 15 16 17 18 19 20 21 22 23 24 25 26 27 28 29 30 31 32 33 34 35 36 37 38 39 40 41 42 43 44 45 46 47 48 49 50
000
ASUS42 KCAE 040510
RWRCAE
REGIONAL WEATHER ROUNDUP
NATIONAL WEATHER SERVICE COLUMBIA SC
100 AM EDT TUE AUG 04 2015

NOTE: "FAIR" INDICATES FEW OR NO CLOUDS BELOW 12,000 FEET WITH NO
SIGNIFICANT WEATHER AND/OR OBSTRUCTIONS TO VISIBILITY.

NOT ALL STATIONS ARE QUALITY CONTROLLED BY THE NATIONAL
WEATHER SERVICE. USE DATA WITH CAUTION...ESPECIALLY
DEWPOINT OBSERVATIONS.

SCZ001>056-GAZ040-063>065-077-040600-
...UPSTATE SOUTH CAROLINA...

CITY           SKY/WX    TMP DP  RH WIND       PRES   REMARKS
ANDERSON       CLEAR     77  70  79 SE3       29.97R
LIBERTY        CLEAR     74  68  80 SE6       29.98
SPARTANBURG      N/A     79  72  78 CALM      29.97
CLEMSON        CLEAR     80  70  71 SW3       29.99R
GREENVILLE     CLEAR     79  69  71 S5        30.00R
GREENWOOD      CLEAR     75  71  87 S5        29.98S
GREER          CLEAR     77  69  76 SW6       29.97R
ROCK HILL      CLEAR     75  70  84 S3        29.98F
CHESTER        CLEAR     77  70  78 CALM      29.98
LAURENS        CLEAR     77  75  94 CALM      29.97S


...CENTRAL SOUTH CAROLINA...

CITY           SKY/WX    TMP DP  RH WIND       PRES   REMARKS
COLUMBIA APT   PTCLDY    77  72  84 E6        29.95S
COLUMBIA OWENS CLEAR     77  72  84 CALM      29.96S
DARLINGTON     PTCLDY    75  70  83 CALM      29.98F
FLORENCE       CLOUDY    77  74  90 E3        29.96S
MCENTIRE ANGB  CLEAR     73  71  95 NE1       29.95F
ORANGEBURG     CLEAR     76  73  91 NE3       29.94F
SUMTER SHAW    CLEAR     75  71  88 N5        29.93F
NEWBERRY       CLEAR     73  70  88 S5        29.99S
AIKEN          FAIR      72  70  94 CALM      29.99
BARNWELL       FAIR      75  75 100 NE3       29.94
MANNING        RAIN      73  73 100 CALM      29.94
CAMDEN         FAIR      73  72  94 CALM      29.97
LANCASTER      CLEAR     73  73 100 CALM      29.98
WINNSBORO      CLEAR     73  72  94 SE3       29.97


...EASTERN AND COASTAL SOUTH CAROLINA...

CITY           SKY/WX    TMP DP  RH WIND       PRES   REMARKS
MYRTLE BEACH   MOCLDY    82  73  74 SE18      29.98S
N MYRTLE BCH   PTCLDY    83  76  79 S10G21    29.97S
CONWAY         FAIR      73  73 100 CALM      29.96  FOG
MARION         FAIR      77  72  83 CALM      29.97S
HARTSVILLE     FAIR      73  70  88 CALM      29.97S
FLORENCE       CLOUDY    77  74  90 E3        29.96S
DARLINGTON     PTCLDY    75  70  83 CALM      29.98F
CHARLESTON APT MOCLDY    77  74  90 S3        29.92F
MOUNT PLEASANT LGT RAIN  79  77  94 SW6       29.93S
WALTERBORO     PTCLDY    77  73  88 CALM      29.93S
BEAUFORT       CLOUDY    79  76  90 N5        29.90S


...EASTERN GEORGIA...

CITY           SKY/WX    TMP DP  RH WIND       PRES   REMARKS
AUGUSTA BUSH F CLEAR     73  72  96 CALM      29.93F
AUGUSTA DANIEL CLEAR     77  72  84 SE3       29.96S
THOMSON        CLEAR     77  75  94 CALM      29.99S
WASHINGTON     FAIR      79  79 100 S3        29.96S
SYLVANIA       CLEAR     77  77  99 CALM      29.93F
STATESBORO     CLEAR     75  32  21 CALM      29.92F HAZE
SAVANNAH       MOCLDY    77  74  90 N6        29.90F


...SOUTHERN NORTH CAROLINA...

CITY           SKY/WX    TMP DP  RH WIND       PRES   REMARKS
CHARLOTTE      CLEAR     76  69  79 S7        29.98S
MONROE         CLEAR     74  69  85 CALM      29.97S
WADESBORO      CLEAR     75  69  81 SE3       29.97S
ROCKINGHAM     CLEAR     75  71  87 SE3       29.98R
RUTHERFORDTON  CLEAR     75  65  70 CALM      30.00R
ASHEVILLE      CLEAR     70  58  65 NW6       30.06S

$$


USA.gov is the U.S. government's official web portal to all federal, state and local government web resources and services.